Voltar ao catálogo

STARLINK-38044

AtivoComunicaçõesSSO
NORAD 100115·PAYLOAD·🇺🇸 United States

Lançado Jul 21, 2026 de Vandenberg Space Force Base

Loading…

Próximas Passagens (próximas 24 horas)

TLE

AtualizadoSource: Space-Track

Época: Sep 14, 2026, 23:17 UTC

1 A0115U 26166Q   26257.97030956  .00328891  00000-0  21105-2 0  9991
2 A0115  97.2839 276.2130 0001408  81.4847 278.6578 15.75316018  8742

Acompanhe STARLINK-38044 em tempo real com AllMySat

Download on the App Store